timestamp,wind_dir_avg,wind_spd_max_dir,wind_spd_avg,wind_spd_gust,battery_voltage,lat,long
2018-12-19 00:00:00+00:00,205.0,207.0,11.66,15.43,,47.59359,-54.27349
2018-12-19 00:10:00+00:00,204.0,201.0,11.17,12.65,,47.59359,-54.27349
2018-12-19 00:20:00+00:00,206.0,209.0,13.29,14.94,,47.59359,-54.27349
2018-12-19 00:30:00+00:00,208.0,210.0,13.39,15.67,,47.59359,-54.27349
2018-12-19 00:40:00+00:00,210.0,217.0,12.97,14.37,,47.59359,-54.27349
2018-12-19 00:50:00+00:00,217.0,220.0,14.02,15.73,,47.59359,-54.27349
2018-12-19 01:00:00+00:00,218.0,217.0,12.75,14.41,,47.59359,-54.27349
2018-12-19 01:10:00+00:00,212.0,211.0,10.97,12.3,,47.59359,-54.27349
2018-12-19 01:20:00+00:00,211.0,210.0,13.11,14.21,,47.59359,-54.27349
2018-12-19 01:30:00+00:00,212.0,212.0,12.3,15.8,,47.59359,-54.27349
2018-12-19 01:40:00+00:00,203.0,211.0,10.82,12.23,,47.59359,-54.27349
2018-12-19 01:50:00+00:00,217.0,215.0,13.42,15.01,,47.59359,-54.27349
2018-12-19 02:00:00+00:00,215.0,217.0,12.94,14.15,,47.59359,-54.27349
2018-12-19 02:10:00+00:00,211.0,205.0,10.93,12.94,,47.59359,-54.27349
2018-12-19 02:20:00+00:00,216.0,221.0,13.84,15.36,,47.59359,-54.27349
2018-12-19 02:30:00+00:00,218.0,219.0,14.74,16.87,,47.59359,-54.27349
2018-12-19 02:40:00+00:00,216.0,217.0,14.35,16.31,,47.59359,-54.27349
2018-12-19 02:50:00+00:00,214.0,220.0,13.18,14.93,,47.59359,-54.27349
2018-12-19 03:00:00+00:00,216.0,216.0,12.38,14.66,,47.59359,-54.27349
2018-12-19 03:10:00+00:00,215.0,217.0,13.25,15.17,,47.59359,-54.27349
2018-12-19 03:20:00+00:00,216.0,217.0,12.93,14.18,,47.59359,-54.27349
2018-12-19 03:30:00+00:00,229.0,233.0,14.56,17.43,,47.59359,-54.27349
2018-12-19 03:40:00+00:00,228.0,228.0,13.01,14.57,,47.59359,-54.27349
2018-12-19 03:50:00+00:00,220.0,227.0,14.13,16.66,,47.59359,-54.27349
2018-12-19 04:00:00+00:00,230.0,232.0,14.03,16.26,,47.59359,-54.27349
2018-12-19 04:10:00+00:00,229.0,231.0,15.7,17.84,,47.59359,-54.27349
2018-12-19 04:20:00+00:00,230.0,230.0,11.21,12.62,,47.59359,-54.27349
2018-12-19 04:30:00+00:00,223.0,223.0,14.33,15.89,,47.59359,-54.27349
2018-12-19 04:40:00+00:00,227.0,228.0,14.2,15.62,,47.59359,-54.27349
2018-12-19 04:50:00+00:00,225.0,227.0,15.26,17.65,,47.59359,-54.27349
2018-12-19 05:00:00+00:00,231.0,233.0,13.71,15.07,,47.59359,-54.27349
2018-12-19 05:10:00+00:00,228.0,232.0,14.15,16.36,,47.59359,-54.27349
2018-12-19 05:20:00+00:00,237.0,236.0,14.94,17.03,,47.59359,-54.27349
2018-12-19 05:30:00+00:00,228.0,230.0,10.77,12.82,,47.59359,-54.27349
2018-12-19 05:40:00+00:00,233.0,233.0,10.72,12.38,,47.59359,-54.27349
2018-12-19 05:50:00+00:00,228.0,231.0,12.83,14.87,,47.59359,-54.27349
2018-12-19 06:00:00+00:00,233.0,233.0,11.55,13.69,,47.59359,-54.27349
2018-12-19 06:10:00+00:00,227.0,227.0,15.25,17.87,,47.59359,-54.27349
2018-12-19 06:20:00+00:00,221.0,222.0,13.66,15.8,,47.59359,-54.27349
2018-12-19 06:30:00+00:00,224.0,228.0,14.63,17.32,,47.59359,-54.27349
2018-12-19 06:40:00+00:00,227.0,226.0,14.56,16.27,,47.59359,-54.27349
2018-12-19 06:50:00+00:00,224.0,229.0,15.52,17.67,,47.59359,-54.27349
2018-12-19 07:00:00+00:00,228.0,232.0,14.29,16.4,,47.59359,-54.27349
2018-12-19 07:10:00+00:00,223.0,224.0,14.95,16.93,,47.59359,-54.27349
2018-12-19 07:20:00+00:00,225.0,224.0,14.44,17.14,,47.59359,-54.27349
2018-12-19 07:30:00+00:00,225.0,224.0,15.37,17.74,,47.59359,-54.27349
2018-12-19 07:40:00+00:00,225.0,220.0,12.71,16.14,,47.59359,-54.27349
2018-12-19 07:50:00+00:00,230.0,227.0,12.12,13.82,,47.59359,-54.27349
2018-12-19 08:00:00+00:00,231.0,229.0,11.15,13.37,,47.59359,-54.27349
2018-12-19 08:10:00+00:00,230.0,231.0,11.44,12.91,,47.59359,-54.27349
2018-12-19 08:20:00+00:00,236.0,234.0,11.22,13.26,,47.59359,-54.27349
2018-12-19 08:30:00+00:00,239.0,238.0,10.08,12.32,,47.59359,-54.27349
2018-12-19 08:40:00+00:00,243.0,248.0,10.94,12.15,,47.59359,-54.27349
2018-12-19 08:50:00+00:00,247.0,246.0,11.04,13.29,,47.59359,-54.27349
2018-12-19 09:00:00+00:00,267.0,273.0,13.47,15.44,,47.59359,-54.27349
2018-12-19 09:10:00+00:00,250.0,252.0,13.69,15.19,,47.59359,-54.27349
2018-12-19 09:20:00+00:00,242.0,244.0,13.36,15.36,,47.59359,-54.27349
2018-12-19 09:30:00+00:00,262.0,269.0,12.6,13.93,,47.59359,-54.27349
2018-12-19 09:40:00+00:00,267.0,268.0,11.98,14.06,,47.59359,-54.27349
2018-12-19 09:50:00+00:00,259.0,258.0,11.46,13.92,,47.59359,-54.27349
2018-12-19 10:00:00+00:00,269.0,270.0,11.08,12.17,,47.59359,-54.27349
2018-12-19 10:10:00+00:00,276.0,277.0,10.88,12.29,,47.59359,-54.27349
2018-12-19 10:20:00+00:00,273.0,274.0,11.14,12.51,,47.59359,-54.27349
2018-12-19 10:30:00+00:00,271.0,272.0,11.46,13.27,,47.59359,-54.27349
2018-12-19 10:40:00+00:00,273.0,275.0,13.0,15.75,,47.59359,-54.27349
2018-12-19 10:50:00+00:00,278.0,278.0,11.44,12.79,,47.59359,-54.27349
2018-12-19 11:00:00+00:00,276.0,278.0,12.74,15.06,,47.59359,-54.27349
2018-12-19 11:10:00+00:00,277.0,282.0,11.87,13.06,,47.59359,-54.27349
2018-12-19 11:20:00+00:00,279.0,280.0,14.16,15.58,,47.59359,-54.27349
2018-12-19 11:30:00+00:00,279.0,272.0,13.0,15.7,,47.59359,-54.27349
2018-12-19 11:40:00+00:00,292.0,304.0,13.12,15.13,,47.59359,-54.27349
2018-12-19 11:50:00+00:00,285.0,281.0,11.38,12.75,,47.59359,-54.27349
2018-12-19 12:00:00+00:00,288.0,292.0,12.7,14.69,,47.59359,-54.27349
2018-12-19 12:10:00+00:00,289.0,285.0,11.6,14.95,,47.59359,-54.27349
2018-12-19 12:20:00+00:00,294.0,300.0,11.21,13.24,,47.59359,-54.27349
2018-12-19 12:30:00+00:00,293.0,291.0,11.56,13.74,,47.59359,-54.27349
2018-12-19 12:40:00+00:00,298.0,305.0,13.12,14.93,,47.59359,-54.27349
2018-12-19 12:50:00+00:00,305.0,308.0,11.42,13.34,,47.59359,-54.27349
2018-12-19 13:00:00+00:00,297.0,298.0,10.76,12.02,,47.59359,-54.27349
2018-12-19 13:10:00+00:00,304.0,302.0,10.86,13.08,,47.59359,-54.27349
2018-12-19 13:20:00+00:00,297.0,299.0,11.68,13.92,,47.59359,-54.27349
2018-12-19 13:30:00+00:00,295.0,288.0,11.49,13.3,,47.59359,-54.27349
2018-12-19 13:40:00+00:00,298.0,291.0,10.76,12.82,,47.59359,-54.27349
2018-12-19 13:50:00+00:00,298.0,304.0,12.17,13.88,,47.59359,-54.27349
2018-12-19 14:00:00+00:00,301.0,299.0,11.89,14.07,,47.59359,-54.27349
2018-12-19 14:10:00+00:00,300.0,302.0,11.31,13.61,,47.59359,-54.27349
2018-12-19 14:20:00+00:00,296.0,291.0,11.94,14.09,,47.59359,-54.27349
2018-12-19 14:30:00+00:00,294.0,288.0,10.8,12.19,,47.59359,-54.27349
2018-12-19 14:40:00+00:00,291.0,291.0,10.81,12.2,,47.59359,-54.27349
2018-12-19 14:50:00+00:00,303.0,309.0,11.42,13.07,,47.59359,-54.27349
2018-12-19 15:00:00+00:00,305.0,307.0,13.61,15.4,,47.59359,-54.27349
2018-12-19 15:10:00+00:00,296.0,305.0,11.16,13.95,,47.59359,-54.27349
2018-12-19 15:20:00+00:00,298.0,302.0,11.21,13.42,,47.59359,-54.27349
2018-12-19 15:30:00+00:00,294.0,293.0,10.34,12.47,,47.59359,-54.27349
2018-12-19 15:40:00+00:00,286.0,285.0,9.5,11.33,,47.59359,-54.27349
2018-12-19 15:50:00+00:00,287.0,301.0,11.37,13.27,,47.59359,-54.27349
2018-12-19 16:00:00+00:00,285.0,286.0,10.77,12.36,,47.59359,-54.27349
2018-12-19 16:10:00+00:00,289.0,297.0,9.56,11.37,,47.59359,-54.27349
2018-12-19 16:20:00+00:00,291.0,300.0,11.34,14.1,,47.59359,-54.27349
2018-12-19 16:30:00+00:00,300.0,305.0,12.93,15.36,,47.59359,-54.27349
2018-12-19 16:40:00+00:00,297.0,292.0,10.39,13.76,,47.59359,-54.27349
2018-12-19 16:50:00+00:00,303.0,309.0,11.36,13.08,,47.59359,-54.27349
2018-12-19 17:00:00+00:00,305.0,307.0,12.93,16.1,,47.59359,-54.27349
2018-12-19 17:10:00+00:00,309.0,308.0,12.93,14.77,,47.59359,-54.27349
2018-12-19 17:20:00+00:00,302.0,303.0,13.2,16.2,,47.59359,-54.27349
2018-12-19 17:30:00+00:00,311.0,310.0,13.02,15.83,,47.59359,-54.27349
2018-12-19 17:40:00+00:00,313.0,320.0,13.52,16.77,,47.59359,-54.27349
2018-12-19 17:50:00+00:00,314.0,320.0,12.92,15.87,,47.59359,-54.27349
2018-12-19 18:00:00+00:00,297.0,291.0,10.5,12.86,,47.59359,-54.27349
2018-12-19 18:10:00+00:00,301.0,306.0,11.67,13.56,,47.59359,-54.27349
2018-12-19 18:20:00+00:00,300.0,296.0,12.64,15.68,,47.59359,-54.27349
2018-12-19 18:30:00+00:00,312.0,318.0,12.63,15.09,,47.59359,-54.27349
2018-12-19 18:40:00+00:00,293.0,296.0,14.08,16.98,,47.59359,-54.27349
2018-12-19 18:50:00+00:00,303.0,301.0,13.62,15.69,,47.59359,-54.27349
2018-12-19 19:00:00+00:00,296.0,298.0,13.04,15.27,,47.59359,-54.27349
2018-12-19 19:10:00+00:00,294.0,295.0,10.65,12.81,,47.59359,-54.27349
2018-12-19 19:20:00+00:00,300.0,293.0,10.45,13.05,,47.59359,-54.27349
2018-12-19 19:30:00+00:00,295.0,295.0,10.65,12.5,,47.59359,-54.27349
2018-12-19 19:40:00+00:00,299.0,298.0,11.58,14.02,,47.59359,-54.27349
2018-12-19 19:50:00+00:00,297.0,294.0,10.66,13.3,,47.59359,-54.27349
2018-12-19 20:00:00+00:00,299.0,295.0,11.0,13.53,,47.59359,-54.27349
2018-12-19 20:10:00+00:00,289.0,294.0,10.99,12.88,,47.59359,-54.27349
2018-12-19 20:20:00+00:00,291.0,289.0,10.23,12.82,,47.59359,-54.27349
2018-12-19 20:30:00+00:00,290.0,295.0,11.88,15.07,,47.59359,-54.27349
2018-12-19 20:40:00+00:00,294.0,305.0,13.38,17.04,,47.59359,-54.27349
2018-12-19 20:50:00+00:00,289.0,286.0,15.11,16.5,,47.59359,-54.27349
2018-12-19 21:00:00+00:00,289.0,287.0,15.13,17.3,,47.59359,-54.27349
2018-12-19 21:10:00+00:00,288.0,291.0,14.16,16.87,,47.59359,-54.27349
2018-12-19 21:20:00+00:00,291.0,295.0,13.0,15.66,,47.59359,-54.27349
2018-12-19 21:30:00+00:00,284.0,289.0,13.58,15.11,,47.59359,-54.27349
2018-12-19 21:40:00+00:00,302.0,303.0,12.25,14.21,,47.59359,-54.27349
2018-12-19 21:50:00+00:00,302.0,310.0,11.68,17.44,,47.59359,-54.27349
2018-12-19 22:00:00+00:00,300.0,301.0,10.54,12.13,,47.59359,-54.27349
2018-12-19 22:10:00+00:00,309.0,309.0,11.42,13.16,,47.59359,-54.27349
2018-12-19 22:20:00+00:00,298.0,299.0,15.07,17.31,,47.59359,-54.27349
2018-12-19 22:30:00+00:00,287.0,286.0,14.5,16.83,,47.59359,-54.27349
2018-12-19 22:40:00+00:00,283.0,286.0,14.25,16.16,,47.59359,-54.27349
2018-12-19 22:50:00+00:00,295.0,288.0,13.7,15.96,,47.59359,-54.27349
2018-12-19 23:00:00+00:00,295.0,285.0,14.89,17.43,,47.59359,-54.27349
2018-12-19 23:10:00+00:00,300.0,300.0,12.53,15.14,,47.59359,-54.27349
2018-12-19 23:20:00+00:00,300.0,300.0,14.1,15.66,,47.59359,-54.27349
2018-12-19 23:30:00+00:00,298.0,299.0,14.14,18.11,,47.59359,-54.27349
2018-12-19 23:40:00+00:00,300.0,301.0,12.04,14.17,,47.59359,-54.27349
2018-12-19 23:50:00+00:00,282.0,285.0,12.52,14.38,,47.59359,-54.27349
